Regional Weather Roundup
Issued by NWS

Home | Current Version | Previous Version | Text Only | Print | Product List | Glossary On
Versions: 1 2 3 4 5 6 7 8 9 10 11 12 13 14 15 16 17 18 19 20 21 22 23 24 25 26 27 28 29 30 31 32 33 34 35 36 37 38 39 40 41 42 43 44 45 46 47 48 49 50
725
ASUS44 KJAN 192303
RWRMS

MISSISSIPPI HOURLY WEATHER ROUNDUP
NATIONAL WEATHER SERVICE JACKSON MS
600 PM CDT SAT APR 19 2014

NOTE: "FAIR: INDICATES FEW OR NO CLOUDS BELOW 12,000 FEET WITH NO
SIGNIFICANT WEATHER AND/OR OBSTRUCTIONS TO VISIBILITY.

MSZ001>002-007>008-010>013-018>021-025>028-034>036-200000-
NORTHWEST MISSISSIPPI

CITY           SKY/WX    TMP DP  RH WIND       PRES   REMARKS
CLARKSDALE       N/A     77  46  33 N6        30.12F
CLEVELAND      FAIR      76  51  41 N8        30.11S
GREENWOOD      SUNNY     78  48  34 N7        30.10S
GREENVILLE     SUNNY     78  48  34 N9        30.11S
GRENADA        FAIR      77  43  29 N7        30.10S
OXFORD         FAIR      75  41  29 E5        30.13R
TUNICA         CLEAR     73  45  35 N9        30.13S
$$

MSZ003>006-009-014>017-022>024-029>033-037>039-200000-
NORTHEAST MISSISSIPPI

CITY           SKY/WX    TMP DP  RH WIND       PRES   REMARKS
BELMONT        FAIR      75  44  33 NE7       30.11S
COLUMBUS AFB   SUNNY     78  42  27 NE8       30.09S
CORINTH        FAIR      77  36  22 N6        30.11S
GOLDN TRIANGLE SUNNY     77  46  33 N10       30.11F
STARKVILLE     FAIR      75  43  31 N6        30.09F
TUPELO         SUNNY     78  42  27 NE7       30.10S
$$

MSZ040-058-200000-
CENTRAL MISSISSIPPI

CITY           SKY/WX    TMP DP  RH WIND       PRES   REMARKS
JACKSON INTL   MOSUNNY   75  51  43 NW6       30.10S
JACKSON HAWKNS SUNNY     77  50  38 NW8       30.11S
MERIDIAN KEY   SUNNY     76  45  33 N14       30.08S
MERIDIAN NAS   SUNNY     77  45  32 N10       30.08S
RAYMOND        FAIR      75  72  88 N3        30.11S
VICKSBURG      SUNNY     77  50  38 N9        30.12S
$$

MSZ059>079-200000-
SOUTH MISSISSIPPI

CITY           SKY/WX    TMP DP  RH WIND       PRES   REMARKS
BROOKHAVEN     FAIR      75  52  43 N8        30.11F
COLUMBIA       FAIR      77  50  38 MISG      30.07S
HATTIESBURG    SUNNY     78  50  37 NW10      30.08S
MCCOMB         SUNNY     78  49  35 N9        30.09S
NATCHEZ        SUNNY     75  52  43 NE8       30.11S
PINE BELT      SUNNY     77  50  38 NW7       30.10R
$$

MSZ080>082-200000-
COASTAL MISSISSIPPI

CITY           SKY/WX    TMP DP  RH WIND       PRES   REMARKS
BILOXI         MOSUNNY   77  52  41 N9G22     30.05R
PASCAGOULA     MOSUNNY   78  50  37 N9        30.04R
GULFPORT       SUNNY     81  50  33 N12       30.04S
$$



USA.gov is the U.S. government's official web portal to all federal, state and local government web resources and services.